This demonstration page uses our WeatherBlox Daily Observations layout. Learn more.

Left ArrowRight Arrow

39.01783, -85.05884

Hourly Observations for July 21, 2021

Temp ( °F °C ) Dew Point ( °F °C ) Humidity (%) Winds ( mph kmh ) Pressure ( in mb ) Visibility ( mi km ) Precip ( " mm )
12:52 am 00:52 Clear 69 20.6 62 16.7 78 78 WNW 3 6 30.00 1016 9 14 0.00 0.00
1:52 am 01:52 Clear 68 20 62 16.7 81 81 W 5 7 29.99 1016 8 13 0.00 0.00
2:52 am 02:52 Mostly Clear 67 19.4 62 16.7 84 84 W 5 7 29.98 1015 8 13 0.00 0.00
3:52 am 03:52 Clear 66 18.9 62 16.7 87 87 WNW 3 6 29.98 1015 9 14 0.00 0.00
4:52 am 04:52 Clear 66 18.9 62 16.7 87 87 W 6 9 29.97 1015 8 13 0.00 0.00
5:52 am 05:52 Clear 65 18.3 61 16.1 87 87 WNW 3 6 29.98 1015 7 11 0.00 0.00
6:52 am 06:52 Hazy 67 19.4 62 16.7 84 84 NW 5 7 30.01 1016 6 10 0.00 0.00
7:52 am 07:52 Hazy 69 20.6 63 17.2 81 81 NNW 6 9 30.02 1017 6 10 0.00 0.00
8:52 am 08:52 Hazy 70 21.1 64 17.8 82 82 N 5 7 30.04 1017 6 10 0.00 0.00
9:52 am 09:52 Sunny 73 22.8 65 18.3 76 76 N 5 7 30.06 1018 7 11 0.00 0.00
10:52 am 10:52 Partly Cloudy 74 23.3 65 18.3 74 74 NNW 9 15 30.07 1018 7 11 0.00 0.00
11:13 am 11:13 Mostly Cloudy with Haze 75 23.9 66 18.9 74 74 N 9 15 30.08 1018 6 10 0.00 0.00
11:32 am 11:32 Cloudy with Haze 74 23.3 65 18.3 74 74 N 12 19 30.09 1019 5 8 0.00 0.00
11:52 am 11:52 Cloudy with Haze 74 23.3 65 18.3 74 74 N 6 9 30.09 1019 5 8 0.00 0.00
12:12 pm 12:12 Cloudy with Haze 74 23.3 65 18.3 74 74 N 6 9 30.09 1019 5 8 0.00 0.00
12:52 pm 12:52 Hazy 77 25 66 18.9 69 69 NW 8 13 30.09 1019 6 10 0.00 0.00
1:52 pm 13:52 Partly Cloudy 79 26.1 62 16.7 56 56 VRB 5 7 30.08 1019 7 11 0.00 0.00
2:52 pm 14:52 Partly Cloudy 80 26.7 61 16.1 52 52 NNW 14 22 30.07 1018 7 11 0.00 0.00
3:52 pm 15:52 Mostly Sunny 81 27.2 62 16.7 53 53 N 9 15 30.07 1018 7 11 0.00 0.00
4:52 pm 16:52 Mostly Sunny 81 27.2 61 16.1 51 51 N 8 13 30.06 1018 8 13 0.00 0.00
5:52 pm 17:52 Mostly Sunny 81 27.2 62 16.7 53 53 NW 9 15 30.06 1018 8 13 0.00 0.00
6:52 pm 18:52 Mostly Sunny 79 26.1 61 16.1 54 54 N 7 11 30.06 1018 8 13 0.00 0.00
7:52 pm 19:52 Partly Cloudy 77 25 62 16.7 60 60 N 8 13 30.07 1018 8 13 0.00 0.00
8:52 pm 20:52 Mostly Cloudy 75 23.9 61 16.1 62 62 N 8 13 30.08 1019 8 13 0.00 0.00
9:52 pm 21:52 Mostly Cloudy 73 22.8 60 15.6 64 64 N 7 11 30.10 1019 9 14 0.00 0.00
10:52 pm 22:52 Partly Cloudy 72 22.2 59 15 64 64 NNE 7 11 30.12 1020 9 14 0.00 0.00
11:52 pm 23:52 Partly Cloudy 73 22.8 59 15 62 62 ENE 9 15 30.13 1020 10 16 0.00 0.00

Powered by AerisWeather